| time (UTC) | temp C | wind direction | speed KPH | gust KPH | rain 1hr cm | rain 24hr cm | rain mn cm | humidity % | barometer mb |
| 20260506164018 | 16 | 203 | 17.7 | 32.2 | 0.00 | 0.03 | 0.00 | 54 | 1009.0 |
| 20260506163018 | 16 | 203 | 16.1 | 30.6 | 0.00 | 0.03 | 0.00 | 53 | 1009.0 |
| 20260506162018 | 15 | 203 | 16.1 | 27.4 | 0.00 | 0.03 | 0.00 | 53 | 1008.9 |
| 20260506161038 | 16 | 203 | 16.1 | 32.2 | 0.00 | 0.03 | 0.00 | 52 | 1008.9 |
| 20260506160018 | 16 | 203 | 12.9 | 27.4 | 0.00 | 0.03 | 0.00 | 52 | 1008.9 |
| 20260506155018 | 15 | 203 | 16.1 | 30.6 | 0.00 | 0.03 | 0.00 | 52 | 1009.0 |
| 20260506154018 | 16 | 203 | 17.7 | 32.2 | 0.00 | 0.03 | 0.00 | 51 | 1009.0 |
| 20260506153018 | 16 | 203 | 19.3 | 37.0 | 0.00 | 0.03 | 0.00 | 50 | 1009.0 |
| 20260506152018 | 16 | 203 | 16.1 | 30.6 | 0.00 | 0.03 | 0.00 | 50 | 1009.0 |
| 20260506151018 | 16 | 203 | 16.1 | 33.8 | 0.00 | 0.03 | 0.00 | 49 | 1009.1 |
| 20260506150017 | 16 | 203 | 19.3 | 35.4 | 0.00 | 0.03 | 0.00 | 51 | 1009.0 |
| 20260506145018 | 16 | 203 | 16.1 | 29.0 | 0.00 | 0.03 | 0.00 | 50 | 1009.2 |
| 20260506144017 | 16 | 225 | 16.1 | 30.6 | 0.00 | 0.03 | 0.00 | 51 | 1009.2 |
| 20260506143017 | 16 | 203 | 14.5 | 29.0 | 0.00 | 0.03 | 0.00 | 53 | 1009.4 |
| 20260506142017 | 16 | 203 | 16.1 | 29.0 | 0.00 | 0.03 | 0.00 | 53 | 1009.6 |
| 20260506141017 | 16 | 203 | 12.9 | 25.7 | 0.00 | 0.03 | 0.00 | 53 | 1009.7 |
| 20260506140018 | 16 | 203 | 12.9 | 30.6 | 0.00 | 0.03 | 0.00 | 52 | 1009.7 |
| 20260506135037 | 16 | 203 | 12.9 | 30.6 | 0.00 | 0.03 | 0.00 | 51 | 1009.8 |
| 20260506134117 | 15 | 203 | 12.9 | 25.7 | 0.00 | 0.03 | 0.00 | 51 | 1009.9 |
| 20260506133037 | 15 | 203 | 12.9 | 29.0 | 0.00 | 0.03 | 0.00 | 52 | 1010.0 |
| 20260506132017 | 15 | 203 | 11.3 | 24.1 | 0.00 | 0.03 | 0.00 | 52 | 1010.0 |
| 20260506131017 | 15 | 180 | 11.3 | 25.7 | 0.00 | 0.03 | 0.00 | 53 | 1010.1 |
| 20260506130017 | 15 | 180 | 12.9 | 30.6 | 0.00 | 0.03 | 0.00 | 55 | 1010.1 |
| 20260506125017 | 15 | 180 | 12.9 | 24.1 | 0.00 | 0.03 | 0.00 | 55 | 1010.2 |
| 20260506124017 | 15 | 180 | 11.3 | 20.9 | 0.00 | 0.03 | 0.00 | 56 | 1010.2 |
| 20260506123017 | 15 | 135 | 8.0 | 19.3 | 0.00 | 0.03 | 0.00 | 62 | 1010.3 |
| 20260506122037 | 15 | 135 | 9.7 | 16.1 | 0.00 | 0.03 | 0.00 | 61 | 1010.3 |
| 20260506121057 | 15 | 180 | 4.8 | 11.3 | 0.00 | 0.03 | 0.00 | 61 | 1010.3 |
| 20260506120037 | 15 | 158 | 6.4 | 12.9 | 0.00 | 0.03 | 0.00 | 63 | 1010.4 |
| 20260506115037 | 15 | 158 | 6.4 | 16.1 | 0.00 | 0.03 | 0.00 | 63 | 1010.4 |
| 20260506114017 | 14 | 180 | 9.7 | 17.7 | 0.00 | 0.03 | 0.00 | 64 | 1010.4 |
| 20260506113017 | 14 | 203 | 4.8 | 19.3 | 0.00 | 0.03 | 0.00 | 63 | 1010.6 |
| 20260506112017 | 13 | 158 | 4.8 | 14.5 | 0.00 | 0.03 | 0.00 | 66 | 1010.8 |
| 20260506111017 | 13 | 180 | 4.8 | 12.9 | 0.00 | 0.03 | 0.00 | 70 | 1010.7 |
| 20260506110017 | 12 | 180 | 6.4 | 14.5 | 0.00 | 0.03 | 0.00 | 72 | 1010.6 |
| 20260506105037 | 12 | 135 | 4.8 | 12.9 | 0.00 | 0.03 | 0.00 | 71 | 1010.9 |
| 20260506104017 | 12 | 203 | 3.2 | 11.3 | 0.00 | 0.03 | 0.00 | 74 | 1011.0 |
| 20260506103017 | 11 | 248 | 1.6 | 6.4 | 0.00 | 0.03 | 0.00 | 76 | 1011.0 |
| 20260506102017 | 11 | 0 | 3.2 | 6.4 | 0.00 | 0.03 | 0.00 | 77 | 1010.9 |
| 20260506101017 | 11 | 135 | 1.6 | 6.4 | 0.00 | 0.03 | 0.00 | 77 | 1011.1 |
| 20260506100037 | 10 | 135 | 3.2 | 9.7 | 0.00 | 0.03 | 0.00 | 78 | 1011.2 |
| 20260506095017 | 10 | 135 | 3.2 | 8.0 | 0.00 | 0.03 | 0.00 | 79 | 1011.3 |
| 20260506094017 | 10 | 113 | 6.4 | 16.1 | 0.00 | 0.03 | 0.00 | 78 | 1011.2 |
| 20260506093036 | 10 | 113 | 3.2 | 11.3 | 0.00 | 0.03 | 0.00 | 79 | 1011.0 |
| 20260506092017 | 10 | 135 | 4.8 | 12.9 | 0.00 | 0.03 | 0.00 | 78 | 1010.8 |
| 20260506091017 | 10 | 158 | 3.2 | 8.0 | 0.00 | 0.03 | 0.00 | 79 | 1010.7 |
| 20260506090036 | 10 | 225 | 3.2 | 11.3 | 0.00 | 0.03 | 0.00 | 78 | 1010.7 |
| 20260506085017 | 10 | 180 | 4.8 | 11.3 | 0.00 | 0.03 | 0.00 | 79 | 1010.7 |
| 20260506084017 | 10 | 180 | 3.2 | 11.3 | 0.00 | 0.03 | 0.00 | 80 | 1010.7 |
| 20260506083017 | 9 | 158 | 1.6 | 6.4 | 0.00 | 0.03 | 0.00 | 81 | 1010.5 |
| 20260506082016 | 9 | 158 | 3.2 | 9.7 | 0.00 | 0.03 | 0.00 | 82 | 1010.4 |
| 20260506081017 | 8 | 135 | 3.2 | 6.4 | 0.00 | 0.03 | 0.00 | 83 | 1010.4 |
| 20260506073038 | 8 | 158 | 3.2 | 6.4 | 0.00 | 0.03 | 0.00 | 84 | 1010.2 |
| 20260506072058 | 7 | 68 | 3.2 | 8.0 | 0.00 | 0.03 | 0.00 | 86 | 1010.1 |
| 20260506071018 | 7 | 113 | 3.2 | 9.7 | 0.00 | 0.03 | 0.00 | 88 | 1010.1 |
| 20260506062018 | 7 | 180 | 1.6 | 4.8 | 0.00 | 0.03 | 0.00 | 90 | 1010.1 |
| 20260506061018 | 7 | 158 | 3.2 | 4.8 | 0.00 | 0.03 | 0.00 | 90 | 1010.1 |
| 20260506051058 | 7 | 45 | 4.8 | 8.0 | 0.00 | 0.03 | 0.00 | 89 | 1009.6 |
| 20260506045018 | 6 | 68 | 4.8 | 8.0 | 0.00 | 0.03 | 0.00 | 89 | 1009.4 |
| 20260506044018 | 6 | 90 | 3.2 | 8.0 | 0.00 | 0.03 | 0.00 | 89 | 1009.5 |
| 20260506043018 | 6 | 90 | 3.2 | 8.0 | 0.00 | 0.03 | 0.00 | 89 | 1009.4 |
| 20260506042018 | 6 | 90 | 4.8 | 9.7 | 0.00 | 0.03 | 0.00 | 89 | 1009.4 |
| 20260506041018 | 7 | 90 | 3.2 | 8.0 | 0.00 | 0.03 | 0.00 | 89 | 1009.5 |
| 20260506040018 | 7 | 0.0 | 0.0 | 0.00 | 0.03 | 0.00 | 90 | 1009.6 | |
| 20260506035017 | 7 | 0.0 | 0.0 | 0.00 | 0.03 | 0.00 | 91 | 1009.6 | |
| 20260506034018 | 7 | 270 | 1.6 | 4.8 | 0.00 | 0.03 | 0.00 | 90 | 1009.4 |
| 20260506033038 | 6 | 0.0 | 3.2 | 0.00 | 0.03 | 0.00 | 89 | 1009.4 | |
| 20260506032017 | 7 | 113 | 1.6 | 8.0 | 0.00 | 0.03 | 0.00 | 88 | 1009.4 |
| 20260506031018 | 7 | 45 | 3.2 | 8.0 | 0.00 | 0.03 | 0.00 | 88 | 1009.3 |
| 20260506030017 | 7 | 68 | 4.8 | 9.7 | 0.00 | 0.03 | 0.00 | 88 | 1009.3 |
| 20260506025018 | 7 | 68 | 4.8 | 11.3 | 0.00 | 0.03 | 0.00 | 88 | 1009.4 |
| 20260506024017 | 7 | 68 | 4.8 | 11.3 | 0.00 | 0.03 | 0.00 | 87 | 1009.5 |
| 20260506023018 | 7 | 68 | 4.8 | 8.0 | 0.00 | 0.03 | 0.00 | 87 | 1009.4 |
| 20260506022017 | 7 | 45 | 8.0 | 11.3 | 0.00 | 0.03 | 0.00 | 87 | 1009.5 |
| 20260506021018 | 7 | 45 | 4.8 | 8.0 | 0.00 | 0.03 | 0.00 | 87 | 1009.5 |
| 20260506020017 | 7 | 0.0 | 0.0 | 0.00 | 0.03 | 0.00 | 88 | 1009.6 | |
| 20260506015018 | 7 | 45 | 1.6 | 8.0 | 0.00 | 0.03 | 0.00 | 88 | 1009.7 |
| 20260506014017 | 7 | 45 | 8.0 | 11.3 | 0.00 | 0.03 | 0.00 | 88 | 1009.6 |
| 20260506013017 | 7 | 23 | 4.8 | 9.7 | 0.00 | 0.03 | 0.00 | 87 | 1009.5 |
| 20260506012037 | 8 | 23 | 4.8 | 8.0 | 0.00 | 0.03 | 0.00 | 87 | 1009.5 |
| 20260506011017 | 8 | 45 | 6.4 | 11.3 | 0.00 | 0.03 | 0.00 | 87 | 1009.5 |
| 20260506010017 | 8 | 45 | 6.4 | 9.7 | 0.00 | 0.03 | 0.00 | 86 | 1009.6 |
| 20260506005017 | 8 | 45 | 1.6 | 6.4 | 0.00 | 0.03 | 0.00 | 87 | 1009.7 |
| 20260506004017 | 8 | 0.0 | 4.8 | 0.00 | 0.03 | 0.00 | 87 | 1009.8 | |
| 20260506003017 | 8 | 45 | 4.8 | 8.0 | 0.00 | 0.03 | 0.00 | 86 | 1009.8 |
| 20260506002017 | 8 | 68 | 4.8 | 6.4 | 0.00 | 0.03 | 0.00 | 86 | 1009.8 |
| 20260506001037 | 8 | 68 | 1.6 | 6.4 | 0.00 | 0.03 | 0.00 | 86 | 1009.9 |
| 20260506000017 | 8 | 45 | 1.6 | 4.8 | 0.00 | 0.03 | 0.03 | 86 | 1010.0 |
| 20260505235017 | 8 | 45 | 4.8 | 8.0 | 0.00 | 0.03 | 0.03 | 86 | 1009.9 |
| 20260505234017 | 8 | 45 | 6.4 | 9.7 | 0.00 | 0.03 | 0.03 | 86 | 1009.7 |
| 20260505233017 | 8 | 45 | 8.0 | 14.5 | 0.00 | 0.03 | 0.03 | 86 | 1009.7 |
| 20260505232017 | 9 | 23 | 4.8 | 12.9 | 0.00 | 0.03 | 0.03 | 84 | 1009.8 |
| 20260505231037 | 9 | 45 | 6.4 | 11.3 | 0.00 | 0.03 | 0.03 | 84 | 1009.7 |
| 20260505230017 | 9 | 45 | 4.8 | 9.7 | 0.00 | 0.03 | 0.03 | 84 | 1009.8 |
| 20260505225037 | 9 | 45 | 4.8 | 8.0 | 0.00 | 0.03 | 0.03 | 84 | 1009.9 |
| 20260505224017 | 10 | 45 | 6.4 | 11.3 | 0.00 | 0.03 | 0.03 | 84 | 1010.0 |
| 20260505223017 | 10 | 45 | 4.8 | 9.7 | 0.00 | 0.03 | 0.03 | 83 | 1010.1 |
| 20260505222017 | 10 | 68 | 4.8 | 11.3 | 0.00 | 0.03 | 0.03 | 82 | 1010.1 |
| 20260505221017 | 10 | 68 | 3.2 | 8.0 | 0.00 | 0.03 | 0.03 | 81 | 1010.5 |
| 20260505220037 | 10 | 68 | 1.6 | 4.8 | 0.00 | 0.03 | 0.03 | 80 | 1010.6 |
| 20260505215017 | 10 | 338 | 1.6 | 4.8 | 0.00 | 0.03 | 0.03 | 80 | 1010.5 |
| 20260505214017 | 10 | 45 | 4.8 | 8.0 | 0.00 | 0.03 | 0.03 | 80 | 1010.4 |
| 20260505213017 | 10 | 45 | 4.8 | 8.0 | 0.00 | 0.03 | 0.03 | 79 | 1010.4 |
| 20260505212017 | 10 | 23 | 3.2 | 8.0 | 0.00 | 0.03 | 0.03 | 78 | 1010.4 |
| 20260505211037 | 10 | 23 | 3.2 | 6.4 | 0.00 | 0.03 | 0.03 | 79 | 1010.2 |
| 20260505210017 | 10 | 338 | 1.6 | 6.4 | 0.00 | 0.03 | 0.03 | 79 | 1010.1 |
| 20260505205017 | 10 | 338 | 3.2 | 8.0 | 0.00 | 0.03 | 0.03 | 78 | 1010.0 |
| 20260505204017 | 10 | 315 | 4.8 | 8.0 | 0.00 | 0.03 | 0.03 | 79 | 1009.7 |
| 20260505203017 | 11 | 338 | 3.2 | 9.7 | 0.00 | 0.03 | 0.03 | 78 | 1009.5 |
| 20260505202057 | 11 | 0 | 3.2 | 6.4 | 0.00 | 0.05 | 0.03 | 78 | 1009.6 |
| 20260505201017 | 11 | 0 | 4.8 | 11.3 | 0.00 | 0.15 | 0.03 | 78 | 1009.1 |
| 20260505200017 | 11 | 0 | 3.2 | 6.4 | 0.00 | 0.23 | 0.03 | 78 | 1009.0 |
| 20260505195037 | 11 | 0 | 6.4 | 9.7 | 0.00 | 0.61 | 0.03 | 78 | 1008.8 |
| 20260505194017 | 11 | 0.0 | 4.8 | 0.00 | 0.71 | 0.03 | 79 | 1008.8 | |
| 20260505193017 | 11 | 0.0 | 3.2 | 0.00 | 0.71 | 0.03 | 80 | 1008.9 | |
| 20260505192016 | 11 | 158 | 1.6 | 4.8 | 0.00 | 0.71 | 0.03 | 80 | 1008.7 |
| 20260505191017 | 11 | 158 | 3.2 | 6.4 | 0.00 | 0.71 | 0.03 | 79 | 1008.7 |
| 20260505190037 | 11 | 180 | 4.8 | 9.7 | 0.00 | 0.71 | 0.03 | 79 | 1008.7 |
| 20260505185017 | 11 | 158 | 4.8 | 6.4 | 0.00 | 0.71 | 0.03 | 80 | 1008.7 |
| 20260505184016 | 11 | 158 | 4.8 | 9.7 | 0.00 | 0.71 | 0.03 | 80 | 1008.7 |
| 20260505183017 | 12 | 158 | 6.4 | 14.5 | 0.00 | 0.71 | 0.03 | 77 | 1008.8 |
| 20260505182016 | 12 | 90 | 4.8 | 11.3 | 0.00 | 0.71 | 0.03 | 72 | 1008.6 |
| 20260505181016 | 12 | 45 | 6.4 | 11.3 | 0.00 | 0.71 | 0.03 | 72 | 1008.4 |
| 20260505180016 | 12 | 45 | 6.4 | 11.3 | 0.03 | 0.71 | 0.03 | 70 | 1008.2 |
| 20260505175016 | 12 | 45 | 8.0 | 16.1 | 0.03 | 0.71 | 0.03 | 72 | 1008.1 |
| 20260505174016 | 13 | 90 | 4.8 | 11.3 | 0.03 | 0.71 | 0.03 | 70 | 1008.0 |
| 20260505173036 | 13 | 248 | 1.6 | 4.8 | 0.03 | 0.71 | 0.03 | 72 | 1008.0 |
| 20260505172018 | 12 | 203 | 6.4 | 11.3 | 0.03 | 0.71 | 0.03 | 73 | 1008.0 |
| 20260505171038 | 13 | 180 | 8.0 | 12.9 | 0.03 | 0.71 | 0.03 | 67 | 1008.2 |
| 20260505170018 | 13 | 315 | 9.7 | 25.7 | 0.00 | 0.71 | 0.00 | 60 | 1008.3 |
| 20260505165018 | 14 | 293 | 22.5 | 43.5 | 0.00 | 0.71 | 0.00 | 58 | 1008.3 |